Location: Marstown
(39.5056°N, 77.0820°W)
Time: 00:49:06
(UTC-05:00)

Hubble Space Telescope - Visible Passes

Search period start: 23 February 2024 00:00
Search period end: 04 March 2024 00:00
Orbit: 516 x 519 km, 28.5° (Epoch: 22 February)

Date Brightness Start Highest point End Pass type
(mag) Time Alt. Az. Time Alt. Az. Time Alt. Az.
24 Feb 3.2 19:48:52 10° SSW 19:49:43 12° S 19:49:43 12° S visible
25 Feb 2.9 19:31:12 10° SSW 19:33:24 14° S 19:33:27 14° S visible
26 Feb 2.8 19:13:36 10° SSW 19:15:56 15° S 19:17:09 13° SSE visible
27 Feb 2.8 18:56:01 10° SSW 18:58:28 16° S 19:00:48 10° SE visible
28 Feb 2.9 18:38:27 10° SW 18:40:58 16° S 18:43:31 10° SE visible
28 Feb 3.4 20:18:41 10° SW 20:19:22 12° SW 20:19:22 12° SW visible
29 Feb 3.1 20:01:20 10° SW 20:03:00 14° SSW 20:03:00 14° SSW visible
01 Mar 3.0 19:44:01 10° SW 19:45:59 13° SSW 19:46:39 13° S visible
02 Mar 3.2 19:26:45 10° SW 19:28:28 12° SSW 19:30:10 10° SSE visible
03 Mar 3.3 19:09:36 10° SW 19:10:55 11° SSW 19:12:14 10° S visible
